全球星 M025星 (GLOBALSTAR M025)

导读 | 星芒AI

GLOBALSTAR M025 是 Globalstar 卫星通信公司部署的一颗低轨移动通信卫星,属于第二代 Globalstar 卫星星座的一部分。该卫星运行在近地轨道,主要用于提供语音和数据通信服务,特别是在偏远地区和海上等传统通信难以覆盖的区域。M025 采用先进通信技术,支持移动终端与卫星之间的双向通信,广泛应用于应急通信、交通运输和远程监测等领域,提升了全球范围内的通信可达性和可靠性。

基本信息
目录编号:
25770
目录名称:
GLOBALSTAR M025
国际标识:
1999-031A
轨道中心:
EARTH
卫星名称:
全球星 M025星
卫星全名:
全球星 M025星 (GLOBALSTAR M025)
卫星状态:
在轨 (已飞行9638 天)
发射日期:
1999-06-10 UTC
国别 :
(GLOB)
星等 :
--
轨道信息
数据来源 国际轨道数据
星历时间: 2025-10-29T20:33:52+0800
5小时前
查看轨道信息
半长轴: 8425.508km
偏心率: 0.0002826
轨道倾角: 51.980°
近地点辐角 22.271°
升交点赤经 208.071°
平近点角 149.302°
近地点: 2044.991km
远地点: 2049.755km
周期: 128.278分钟
每日圈数: 11.225576
详细信息
固有亮度:
5
最大亮度:
7.9
平衡模式:
三轴稳定
覆盖范围:
全球
运营商:
全球星公司
运营商所在国:
美国
使用方式:
暂无
卫星简介
全球星星座由48颗卫星加8颗备份星组成。这些卫星分布在8个倾角为52度的圆形轨道平面上,每个轨道平面6颗卫星,另有1 颗备用星。轨道高度约为1414km,传输时延和处理时延小于300ms,整个系统的覆盖区为南北纬70度以内的地区。该卫星仍在工作。
2D轨道图
3D轨道图
轨道高度分析图
轨道倾角分析图
轨道综合分析图
查看轨道综合分析图